EW7354 Weather Reports


Display with metric or nautical units.
time (UTC)temp
F
wind
direction
speed
MPH
gust
MPH
rain 1hr
in
rain 24hr
in
rain mn
in
humidity
%
barometer
mb
20260505054520 58 197 2.0 9.0 0.00 0.00 0.00 57 1000.3
20260505053021 58 203 3.0 11.0 0.00 0.00 0.00 53 1000.2
20260505051524 59 129 0.0 4.0 0.00 0.00 0.00 53 1000.2
20260505041521 62 120 0.0 6.0 0.00 0.00 0.00 44 999.3
20260505040014 62 352 2.0 13.0 0.00 0.00 0.00 44 999.1
20260505034513 63 193 3.0 9.0 0.00 0.00 0.00 38 998.8
20260505033014 63 110 0.0 1.0 0.00 0.00 0.00 39 998.7
20260505031512 64 145 0.0 1.0 0.00 0.00 0.00 37 998.7
20260505030011 65 157 0.0 3.0 0.00 0.00 0.00 36 998.6
20260505024512 65 158 0.0 5.0 0.00 0.00 0.00 35 998.4
20260505023019 66 102 0.0 2.0 0.00 0.00 0.00 35 998.3
20260505021514 67 214 0.0 3.0 0.00 0.00 0.00 34 998.3
20260505020008 67 108 0.0 2.0 0.00 0.00 0.00 33 998.3
20260505014513 68 104 0.0 2.0 0.00 0.00 0.00 31 998.3
20260505013007 68 105 0.0 3.0 0.00 0.00 0.00 30 998.2
20260505011511 69 152 0.0 2.0 0.00 0.00 0.00 29 998.2
20260505010005 71 150 0.0 2.0 0.00 0.00 0.00 28 998.3
20260505004506 69 85 0.0 3.0 0.00 0.00 0.00 29 998.2
20260505003004 70 75 0.0 3.0 0.00 0.00 0.00 29 998.3
20260505001502 71 116 1.0 5.0 0.00 0.00 0.00 28 998.4
20260505000001 72 101 0.0 6.0 0.00 0.00 0.00 28 998.6
20260504234501 76 78 0.0 4.0 0.00 0.00 0.00 26 998.5
20260504233107 75 272 0.0 3.0 0.00 0.00 0.00 27 998.8
20260504231559 73 109 0.0 2.0 0.00 0.00 0.00 30 998.9
20260504230105 72 127 0.0 1.0 0.00 0.00 0.00 33 999.2
20260504224556 67 124 0.0 1.0 0.00 0.00 0.00 38 999.5
20260504223102 65 104 1.0 4.0 0.00 0.00 0.00 42 999.5
20260504221600 66 109 1.0 5.0 0.00 0.00 0.00 42 999.5
20260504220056 69 130 0.0 4.0 0.00 0.00 0.00 34 999.7
20260504214608 70 113 0.0 1.0 0.00 0.00 0.00 28 999.2
20260504213100 70 176 2.0 6.0 0.00 0.00 0.00 24 998.8
20260504211555 72 360 1.0 4.0 0.00 0.00 0.00 24 998.7
20260504210052 73 212 0.0 3.0 0.00 0.00 0.00 25 998.8
20260504204553 74 211 0.0 3.0 0.00 0.00 0.00 23 999.0
20260504203053 75 121 1.0 3.0 0.00 0.00 0.00 23 999.0
20260504201601 76 124 1.0 9.0 0.00 0.00 0.00 22 999.2
20260504200049 78 250 0.0 3.0 0.00 0.00 0.00 20 999.2
20260504194551 80 298 1.0 3.0 0.00 0.00 0.00 20 999.3
20260504193044 78 191 0.0 6.0 0.00 0.00 0.00 20 999.5
20260504191554 78 261 0.0 4.0 0.00 0.00 0.00 19 999.6
20260504190039 77 132 0.0 5.0 0.00 0.00 0.00 21 999.9
20260504184549 77 200 1.0 3.0 0.00 0.00 0.00 21 999.9
20260504183035 75 103 1.0 6.0 0.00 0.00 0.00 25 1000.1
20260504181536 75 266 2.0 6.0 0.00 0.00 0.00 24 1000.2
20260504180032 75 132 3.0 7.0 0.00 0.00 0.00 24 1000.5
20260504174531 75 292 1.0 6.0 0.00 0.00 0.00 25 1000.5
20260504173031 76 167 1.0 3.0 0.00 0.00 0.00 24 1000.7
20260504171525 75 136 0.0 4.0 0.00 0.00 0.00 32 1000.9
20260504140108 54 178 0.0 0.0 0.00 0.00 0.00 46 1002.5
20260504081535 58 280 1.0 4.0 0.00 0.00 0.00 30 1002.1